Погода в Бозое

Россия / Иркутская область     52°55′20″N   104°51′06″E
темп.,
°C
ветер,
м/с
пор.,
м/с
влажн.,
%
обл.,
%
осадки,
мм/ч
давл.,
гПа
погр.,
м
17 сентября, пт
пт1723:00+7с228945 0.0 101617
02:00+5ссв229365 0.0 101619
05:00+7всв128698 0.0 101669
08:00+8всв368189 0.0 1017304
11:00+12в445941 0.0 1016672
14:00+15в3250100 0.0 10131127
17:00+15всв445197 0.0 1013830
20:00+9всв497197 0.0 1015208
18 сентября, сб
сб1823:00+6всв228066 0.0 101617
02:00+4всв218828 0.0 101610
05:00+3всв22905 0.0 101619
08:00+5всв23743 0.0 1016107
11:00+13вюв45440 0.0 1013589
14:00+18ююв45385 0.0 10101059
17:00+18ююв453935 0.0 1009938
20:00+11вюв227139 0.0 101112
19 сентября, вс
вс1923:00+8всв2280100 0.0 101210
02:00+7всв22756 0.0 101315
05:00+6всв22755 0.0 101318
08:00+8всв116849 0.0 101449
11:00+14ююв235434 0.0 1012582
14:00+18ю34515 0.0 1011908
17:00+18ююз23540 0.0 1010763
20:00+11с00820 0.0 101010
20 сентября, пн
пн2023:00+10всв11870 0.0 101010
02:00+8в22873 0.0 100914
05:00+7всв22885 0.0 100720
08:00+9в26785 0.0 1006190
11:00+18юв47495 0.0 1002636
14:00+23ююв57375 0.0 9991312
17:00+22ю474135 0.0 9981251
20:00+14з22735 0.0 100143
21 сентября, вт
вт2123:00+10сз71381100 0.1 1006764
02:00+8сз5118899 1.7 1010782
05:00+8сз3789100 0.0 1011568
08:00+7ссз268899 0.3 1012366
11:00+9ссз2274100 0.1 1011766
14:00+7ссз4790100 1.6 1011809
17:00+5ссз5994100 4.4 1013724
20:00+6ссз118141 0.8 101517